DW0529 Weather Reports


Display with metric or nautical units.
time (UTC)temp
F
wind
direction
speed
MPH
gust
MPH
rain 1hr
in
rain 24hr
in
rain mn
in
humidity
%
barometer
mb
20260901110118 60 185 0.0 0.0 0.00 0.00 0.00 97 969.7
20260901105140 60 185 0.0 0.0 0.00 0.00 0.00 97 969.6
20260901103037 60 185 0.0 0.0 0.00 0.00 0.00 96 969.8
20260901102058 60 185 0.0 0.0 0.00 0.00 0.00 96 969.7
20260901101026 60 185 0.0 0.0 0.00 0.00 0.00 96 969.8
20260901100001 60 185 0.0 0.0 0.00 0.00 0.00 96 970.0
20260901094932 60 185 0.0 0.0 0.00 0.00 0.00 96 970.0
20260901093934 60 185 0.0 0.0 0.00 0.00 0.00 96 970.0
20260901092926 60 185 0.0 0.0 0.00 0.00 0.00 96 969.8
20260901091946 60 185 0.0 0.0 0.00 0.00 0.00 96 969.8
20260901091002 60 185 0.0 0.0 0.00 0.00 0.00 96 969.9
20260901090000 60 185 0.0 0.0 0.00 0.00 0.00 96 970.0
20260901084925 60 185 0.0 0.0 0.00 0.00 0.00 95 970.1
20260901083913 61 185 0.0 0.0 0.00 0.00 0.00 95 970.0
20260901082913 61 185 0.0 0.0 0.00 0.00 0.00 95 969.9
20260901081904 61 185 0.0 0.0 0.00 0.00 0.00 95 970.0
20260901080834 61 185 0.0 0.0 0.00 0.00 0.00 95 970.0
20260901075808 61 185 0.0 0.0 0.00 0.00 0.00 95 970.1
20260901074801 61 185 0.0 0.0 0.00 0.00 0.00 95 970.1
20260901073749 61 185 0.0 0.0 0.00 0.00 0.00 95 970.2
20260901071548 61 0 0.0 0.0 0.00 0.00 0.00 94 970.2
20260901070514 61 0 0.0 0.0 0.00 0.00 0.00 93 970.2
20260901065506 62 0 0.0 0.0 0.00 0.00 0.00 93 970.1
20260901064520 62 0 0.0 0.0 0.00 0.00 0.00 93 970.0
20260901063459 62 0 0.0 0.0 0.00 0.00 0.00 93 969.8
20260901062452 62 0 0.0 0.0 0.00 0.00 0.00 93 969.8
20260901060253 62 185 0.0 0.0 0.00 0.00 0.00 92 969.6
20260901054158 62 185 0.0 0.0 0.00 0.00 0.00 91 969.6
20260901053202 62 185 0.0 0.0 0.00 0.00 0.00 91 969.7
20260901051032 63 185 0.0 0.0 0.00 0.00 0.00 89 969.6
20260901044847 63 185 0.0 0.0 0.00 0.00 0.00 88 969.5
20260901043814 64 0 0.0 0.0 0.00 0.00 0.00 88 969.5
20260901041632 64 185 0.0 0.0 0.00 0.00 0.00 86 969.2
20260901040643 64 185 0.0 0.0 0.00 0.00 0.00 86 969.1
20260901035623 64 185 0.0 0.0 0.00 0.00 0.00 85 968.8
20260901034601 64 185 0.0 0.0 0.00 0.00 0.00 85 968.8
20260901031301 65 0 0.0 0.0 0.00 0.00 0.00 83 968.5
20260901030227 66 0 0.0 0.0 0.00 0.00 0.00 82 968.5
20260901025234 66 0 0.0 0.0 0.00 0.00 0.00 77 968.3
20260901024240 66 0 0.0 2.0 0.00 0.00 0.00 77 968.2
20260901023256 67 0 0.0 0.0 0.00 0.00 0.00 76 968.1
20260901022254 67 0 0.0 0.0 0.00 0.00 0.00 73 968.3
20260901021227 68 0 1.0 4.0 0.00 0.00 0.00 73 968.1
20260901020213 69 0 1.0 7.0 0.00 0.00 0.00 74 968.2
20260901015150 70 0 2.0 7.0 0.00 0.00 0.00 73 968.1
20260901011957 73 213 1.0 5.0 0.00 0.00 0.00 58 968.2
20260901010926 74 211 3.0 6.0 0.00 0.00 0.00 53 968.1
20260901005908 75 235 1.0 7.0 0.00 0.00 0.00 47 968.3
20260901004853 74 234 2.0 9.0 0.00 0.00 0.00 46 968.3
20260901003836 74 223 2.0 9.0 0.00 0.00 0.00 50 968.2
20260901002854 75 213 1.0 7.0 0.00 0.00 0.00 51 968.4
20260901001829 75 0 2.0 7.0 0.00 0.00 0.00 49 968.4
20260901000832 77 217 2.0 9.0 0.00 0.00 0.00 42 968.6
20260831235825 78 229 2.0 9.0 0.00 0.00 0.00 41 968.5
20260831234757 79 225 1.0 5.0 0.00 0.00 0.00 39 968.4
20260831233817 79 256 2.0 6.0 0.00 0.00 0.00 38 968.4
20260831232828 78 176 2.0 6.0 0.00 0.00 0.00 40 968.4
20260831231845 78 209 2.0 6.0 0.00 0.00 0.00 40 968.5
20260831230902 78 194 2.0 7.0 0.00 0.00 0.00 44 968.5
20260831225915 77 198 2.0 9.0 0.00 0.00 0.00 45 968.6
20260831224910 78 223 3.0 9.0 0.00 0.00 0.00 47 968.7
20260831223922 78 237 2.0 9.0 0.00 0.00 0.00 48 968.7
20260831222909 78 252 2.0 6.0 0.00 0.00 0.00 52 968.8
20260831221917 78 238 2.0 8.0 0.00 0.00 0.00 55 968.8
20260831220904 78 225 3.0 8.0 0.00 0.00 0.00 56 969.0
20260831215912 78 221 4.0 8.0 0.00 0.00 0.00 55 969.1
20260831214853 79 253 2.0 8.0 0.00 0.00 0.00 57 969.1
20260831213853 79 211 2.0 8.0 0.00 0.00 0.00 56 969.1
20260831212841 79 173 3.0 9.0 0.00 0.00 0.00 55 969.2
20260831211906 78 217 3.0 9.0 0.00 0.00 0.00 54 969.3
20260831210832 79 271 2.0 8.0 0.00 0.00 0.00 53 969.4
20260831205850 79 214 2.0 7.0 0.00 0.00 0.00 53 969.4
20260831204911 79 232 2.0 7.0 0.00 0.00 0.00 53 969.4
20260831202803 79 198 3.0 8.0 0.00 0.00 0.00 56 969.5
20260831201806 79 244 2.0 8.0 0.00 0.00 0.00 56 969.5
20260831200822 79 226 2.0 8.0 0.00 0.00 0.00 53 969.5
20260831195800 79 181 2.0 7.0 0.00 0.00 0.00 55 969.5
20260831194750 79 236 2.0 9.0 0.00 0.00 0.00 56 969.7
20260831193742 79 196 2.0 8.0 0.00 0.00 0.00 55 969.7
20260831192733 79 239 1.0 9.0 0.00 0.00 0.00 58 969.7
20260831191743 79 210 2.0 9.0 0.00 0.00 0.00 59 969.8
20260831190727 80 238 1.0 7.0 0.00 0.00 0.00 60 969.8
20260831185749 79 208 1.0 5.0 0.00 0.00 0.00 61 969.7
20260831184718 79 193 1.0 6.0 0.00 0.00 0.00 62 969.8
20260831183712 77 197 1.0 6.0 0.00 0.00 0.00 64 969.9
20260831182737 77 202 2.0 5.0 0.00 0.00 0.00 65 969.9
20260831180536 77 160 1.0 4.0 0.00 0.00 0.00 65 969.9
20260831175557 77 180 0.0 5.0 0.00 0.00 0.00 66 970.0
20260831174601 76 217 1.0 5.0 0.00 0.00 0.00 67 970.0
20260831173605 76 196 1.0 5.0 0.00 0.00 0.00 69 970.0
20260831172616 74 215 1.0 5.0 0.00 0.00 0.00 70 969.9
20260831171605 74 216 1.0 4.0 0.00 0.00 0.00 69 969.9
20260831170619 74 221 0.0 3.0 0.00 0.00 0.00 69 969.9
20260831165557 73 218 1.0 4.0 0.00 0.00 0.00 71 969.8
20260831164526 73 167 0.0 5.0 0.00 0.00 0.00 72 969.7
20260831163531 72 96 0.0 5.0 0.00 0.00 0.00 74 969.6
20260831162545 72 202 0.0 6.0 0.00 0.00 0.00 75 969.6
20260831161546 71 225 0.0 3.0 0.00 0.00 0.00 77 969.5
20260831160547 70 225 0.0 0.0 0.00 0.00 0.00 79 969.5
20260831155601 69 221 0.0 2.0 0.00 0.00 0.00 80 969.5
20260831153508 66 200 0.0 1.0 0.00 0.00 0.00 85 969.4
20260831152444 66 200 0.0 1.0 0.00 0.00 0.00 85 969.3
20260831151442 65 200 0.0 0.0 0.00 0.00 0.00 86 969.3
20260831150444 65 200 0.0 0.0 0.00 0.00 0.00 87 969.3
20260831144315 64 0 0.0 0.0 0.00 0.00 0.00 87 969.2
20260831143248 63 0 0.0 0.0 0.00 0.00 0.00 87 969.1
20260831142243 63 199 0.0 0.0 0.00 0.00 0.00 88 968.9
20260831141211 63 0 0.0 0.0 0.00 0.00 0.00 89 968.8
20260831140222 63 0 0.0 0.0 0.00 0.00 0.00 90 968.6
20260831135213 63 0 0.0 0.0 0.00 0.00 0.00 90 968.7
20260831134206 63 0 0.0 0.0 0.00 0.00 0.00 91 968.5
20260831132130 64 0 0.0 0.0 0.00 0.00 0.00 90 968.3
20260831130009 64 0 0.0 0.0 0.00 0.00 0.00 89 968.3
20260831125000 64 0 0.0 0.0 0.00 0.00 0.00 89 968.3
20260831123933 64 0 0.0 0.0 0.00 0.00 0.00 86 968.3
20260831122941 63 0 0.0 0.0 0.00 0.00 0.00 85 968.2
20260831121948 63 0 0.0 0.0 0.00 0.00 0.00 82 968.3
20260831120934 63 0 0.0 0.0 0.00 0.00 0.00 83 968.2
20260831115942 62 0 0.0 0.0 0.00 0.00 0.00 83 968.2
20260831114936 63 0 0.0 0.0 0.00 0.00 0.00 86 968.1
20260831113939 63 0 0.0 0.0 0.00 0.00 0.00 89 968.0
20260831112938 63 0 0.0 0.0 0.00 0.00 0.00 89 968.1
20260831111953 63 0 0.0 0.0 0.00 0.00 0.00 89 968.2